Regional Weather Roundup
Issued by NWS Upton, NY

Current Version | Previous Version | Text Only | Print | Product List | Glossary Off
Versions: 1 2 3 4 5 6 7 8 9 10 11 12 13 14 15 16 17 18 19 20 21 22 23 24 25 26 27 28 29 30 31 32 33 34 35 36 37 38 39 40 41 42 43 44 45 46 47 48 49 50
000 ASUS41 KOKX 020704 RWROKX REGIONAL WEATHER ROUNDUP NATIONAL WEATHER SERVICE NEW YORK NY 300 AM EDT WED SEP 02 2015 NOTE: "FAIR" INDICATES FEW OR NO CLOUDS BELOW 12,000 FEET WITH NO SIGNIFICANT WEATHER AND/OR OBSTRUCTIONS TO VISIBILITY. NYZ071-072-176-178-NJZ106-104-020800- NEW YORK CITY METRO AREA CITY SKY/WX TMP DP RH WIND PRES REMARKS CENTRAL PARK CLEAR 76 64 66 CALM 30.06F LAGUARDIA APRT CLEAR 77 67 71 SW5 30.03F KENNEDY INTL CLEAR 73 70 90 SW3 30.04F NEWARK/LIBERTY CLEAR 72 66 81 CALM 30.03F BRNX BOT. GARD N/A 73 64 73 SW1 30.06R TETERBORO CLEAR 71 64 78 CALM 30.02F $$ NYZ177-179-078>081-020800- LONG ISLAND NEW YORK CITY SKY/WX TMP DP RH WIND PRES REMARKS FARMINGDALE CLEAR 72 69 90 CALM 30.04F ISLIP CLEAR 68 66 93 CALM 30.02F SHIRLEY MOCLDY 65 63 93 CALM 30.04F FOG WESTHAMPTON FOG 61 59 93 CALM 30.06F VSB<1/4 MONTAUK POINT N/A 71 68 90 CALM 30.05F $$ NYZ052-065-067-020800- HUDSON VALLEY CITY SKY/WX TMP DP RH WIND PRES REMARKS WHITE PLAINS CLEAR 67 64 90 CALM 30.04F NEWBURGH CLEAR 64 63 94 CALM 30.05F MONTGOMERY CLEAR 62 60 93 CALM 30.04F FOG POUGHKEEPSIE CLEAR 62 59 90 CALM 30.03F ALBANY CLEAR 66 62 87 CALM 30.03F $$ NJZ001-105-106-008-010-013-015-019>022-104-020800- NEW JERSEY CITY SKY/WX TMP DP RH WIND PRES REMARKS NEWARK/LIBERTY CLEAR 72 66 81 CALM 30.03F TETERBORO CLEAR 71 64 78 CALM 30.02F CALDWELL CLEAR 67 63 87 CALM 30.05S MORRISTOWN FOG 61 55 82 CALM 30.05S VSB 1/2 SOMERVILLE CLEAR 65 62 90 CALM 30.03F SUSSEX CLEAR 62 59 90 CALM 30.06F ANDOVER N/A 62 62 100 CALM 30.06F TRENTON CLEAR 69 65 86 N3 30.03F MILLVILLE FOG 70 69 97 CALM 30.02F VSB 1/4 ATLANTIC CITY NOT AVBL WRIGHTSTOWN FOG 66 66 100 CALM 30.01S VSB 1/2 TOMS RIVER CLOUDY 63 63 100 NE8 30.04S VSB<1/4 BELMAR CLEAR 68 61 77 CALM 30.04S $$ PAZ047>061-062-071-020800- EASTERN PENNSYLVANIA CITY SKY/WX TMP DP RH WIND PRES REMARKS PHILADELPHIA CLEAR 74 71 91 CALM 30.03F FOG ALLENTOWN CLEAR 67 64 90 CALM 30.05F SCRANTON CLEAR 66 61 84 E6 30.07S $$ CTZ002-004>006-009-010-012-RIZ004-006-007-MAZ004-011-015-020800- SOUTHERN NEW ENGLAND IN CT CITY SKY/WX TMP DP RH WIND PRES REMARKS BRADLEY INTL CLEAR 64 61 90 CALM 30.02F HARTFORD CLEAR 68 65 90 S3 30.03F DANBURY CLEAR 63 59 87 CALM 30.06F WTRBRY/OXFORD CLEAR 64 57 77 CALM 30.06F BRIDGEPORT CLEAR 72 66 81 CALM 30.03F MERIDEN CLEAR 64 61 90 CALM 30.04F FOG NEW HAVEN CLEAR 66 64 93 CALM 30.04F FOG CHESTER NOT AVBL GROTON PTCLDY 65 64 97 CALM 30.04S WILLIMANTIC MOCLDY 62 59 90 CALM 30.05F IN RI CITY SKY/WX TMP DP RH WIND PRES REMARKS PROVIDENCE CLEAR 65 63 93 CALM 30.04F BLOCK ISLAND CLEAR 70 66 88 SW6 30.04F WESTERLY CLEAR 61 59 93 CALM 30.05F IN MA CITY SKY/WX TMP DP RH WIND PRES REMARKS BOSTON CLEAR 69 62 78 SW12 30.01F WORCESTER CLEAR 63 60 90 SW10 30.05F WESTFIELD CLEAR 61 60 97 CALM 30.03F FOG PROVINCETOWN N/A 68 61 77 SW8 30.03F NANTUCKET CLEAR 63 60 90 S7 30.05S $$ ANZ330-335-338-340-345-350-353-355-020800- COASTAL MARINE OBSERVATIONS STATION/POSITION TIME SKY/WX TEMP WIND PRES VSBY WAVE AIR SEA DIR/SP/G HT/PER (UTC) (F) (DEG/KT/KT) (MB) (MI) (FT/S) NY HARB ENTRANCE 0550 76 76 200/ 6/ 6 1017.2 1/10 4S FIRE IS NOT AVBL 20S FIRE ISLAND 0550 74 75 160/ 4/ 4 1017.2 2/ 8 GREAT SOUTH BAY 0600 74 78 230/ 6/ 6 N/A 23SW MTP 0650 72 72 190/ 4/ 4 1016.9 2/ 8 HUDSON CANYON NOT AVBL KINGS POINT 0600 74 74 170/ 4/ 5 1016.7 EXECUTION ROCKS 0600 73 90/ 2/ 4 N/A CENTRAL LI SOUND NOT AVBL EASTERN LI SOUND 0600 71 71 190/ 4/ 4 N/A ROBBINS REEF 0600 74 180/ 4/ 4 1016.2 $$ >>>>>>>>>>>>>>>>>>>>>>>>>>>> KEY <<<<<<<<<<<<<<<<<<<<<<<<<<< > < > SKY/WX - SKY CONDITION/PRESENT WEATHER < > TMP - TEMPERATURE IN FAHRENHEIT < > DP - DEWPOINT IN FAHRENHEIT < > RH - RELATIVE HUMIDITY IN PERCENT < > WIND - DIRECTION AND SPEED IN MPH < > PRES - MEAN SEA LEVEL PRESSURE IN INCHES OF HG < > WCI - WIND CHILL INDEX < > VSB - VISIBILITY IN MILES < > HX - HEAT INDEX < > TC - TEMPERATURE IN CELSIUS < > VRB - VARIABLE WIND DIRECTION < > < >>>>>>>>>>>>>>>>>>>>>>>>>>>> KEY <<<<<<<<<<<<<<<<<<<<<<<<<<<

USA.gov is the U.S. government's official web portal to all federal, state and local government web resources and services.